Regional Weather Roundup
Issued by NWS

Home | Current Version | Previous Version | Graphics & Text | Print | Product List | Glossary On
Versions: 1 2 3 4 5 6 7 8 9 10 11 12 13 14 15 16 17 18 19 20 21 22 23 24 25 26 27 28 29 30 31 32 33 34 35 36 37 38 39 40 41 42 43 44 45 46 47 48 49
000
ASUS45 KBOU 211307
RWRCO

WEATHER ROUNDUP FOR COLORADO
NATIONAL WEATHER SERVICE DENVER/BOULDER CO
700 AM MDT SUN SEP 21 2014

NOTE: "FAIR" INDICATES FEW OR NO CLOUDS BELOW 12000 FEET WITH NO
SIGNIFICANT WEATHER AND/OR OBSTRUCTIONS TO VISIBILITY.

COZ001>005-013-030-031-211400-
...NORTHWEST COLORADO...

CITY           SKY/WX    TMP DP  RH WIND       PRES   REMARKS
CRAIG          PTCLDY    41  34  76 CALM      30.31R
HAYDEN         PTCLDY    48  36  61 S6        30.31R
MEEKER         NOT AVBL
MOUNT WERNER   NOT AVBL
STEAMBOAT SPGS PTCLDY    46  39  77 CALM      30.33R
WALDEN         CLEAR     36  34  93 SE6       30.43R
$$

COZ006>008-011-211400-
...WEST CENTRAL VALLEYS...

CITY           SKY/WX    TMP DP  RH WIND       PRES   REMARKS
GRAND JUNCTION CLOUDY    65  53  65 S21G30    30.23R
MONTROSE       RAIN      59  55  87 E10       30.38R
EAGLE          MOCLDY    52  43  71 CALM      30.37R
RIFLE          MOCLDY    56  45  66 W3        30.27R
DELTA          LGT RAIN  62  57  86 NE8       30.34S
NUCLA          CLOUDY    59  52  77 E12G17    30.34R
$$

COZ017>023-064>068-211400-
...SOUTHWEST COLORADO...

CITY           SKY/WX    TMP DP  RH WIND       PRES   REMARKS
DURANGO        CLOUDY    56  54  93 NE6       30.38R
CORTEZ         MOCLDY    60  56  86 CALM      30.30R
PAGOSA SPRINGS CLOUDY    56  49  76 CALM      30.44R
TELLURIDE      NOT AVBL
WOLF CREEK PAS CLOUDY    41  41 100 E3        30.69R
$$

COZ009-010-012-014-032>034-037-058>063-211400-
...CENTRAL COLORADO...

CITY           SKY/WX    TMP DP  RH WIND       PRES   REMARKS
ASPEN          CLOUDY    55  43  63 N8        30.39R
BUENA VISTA    LGT RAIN  53  51  92 CALM      30.50R
COPPER MTN     MOCLDY    46  37  71 S26       30.67R
BERTHOUD PASS  FAIR      37  36  93 MISG      30.72R
COTTONWOOD PAS RAIN      52  46  82 CALM      30.60R
GUNNISON       CLOUDY    52  45  76 MISG      30.49R
KREMMLING      CLEAR     41  36  81 CALM      30.41R
LEADVILLE      CLOUDY    45  42  89 CALM      30.57R
MONARCH PASS   LGT RAIN  41  41 100 SW3       30.81R VSB<1/4
SALIDA         CLOUDY    56  53  89 CALM      30.55R
SUNLIGHT       MOCLDY    50  43  76 S3        30.60R
WILKERSON PASS NOT AVBL
$$

COZ069>075-211400-
...SAN LUIS VALLEY/SANGRE DE CRISTO MOUNTAINS...

CITY           SKY/WX    TMP DP  RH WIND       PRES   REMARKS
ALAMOSA        CLOUDY    49  43  80 CALM      30.44R
LA VETA PASS   LGT RAIN  45  45 100 NE9       30.61R VSB 1/4
SAGUACHE       NOT AVBL
$$

COZ035-036-038>040-211400-
...NORTHERN COLORADO FRONT RANGE...

CITY           SKY/WX    TMP DP  RH WIND       PRES   REMARKS
DENVER INTL AP MOCLDY    58  44  60 N5        30.36R
DMNS CITY PARK   N/A     56  44  62 N2        30.38R
AURORA         MOCLDY    55  45  69 W7        30.39R
FRONT RANGE AP CLOUDY    61  48  63 S5        30.37R
ERIE MUNI ARPT CLOUDY    58  44  58 N3        30.38R
BOULDER MUN AP CLOUDY    57  43  58 N3        30.38R
CENTENNIAL     MOCLDY    54  47  77 W6        30.39R
BROOMFIELD     MOCLDY    57  45  62 N5        30.39R
FORT COLLINS   MOCLDY    59  41  51 NE9       30.39R
LONGMONT       CLOUDY    60  45  57 N3        30.39R
$$

COZ041-046-047-076>085-087-088-211400-
...PIKES PEAK/PALMER DIVIDE AND SOUTHERN FOOTHILLS...

CITY           SKY/WX    TMP DP  RH WIND       PRES   REMARKS
COLO. SPRINGS  MOCLDY    58  52  80 SE3       30.42R
A. F. ACADEMY  MOCLDY    57  51  79 VRB3      30.43R
ELLICOTT       NOT AVBL
FALCON         CLOUDY    55  52  90 CALM      30.45S
FORT CARSON    CLOUDY    58  52  81 E6        30.40R
LIMON          CLOUDY    55  43  63 SE6       30.40R
MONUMENT HILL  CLOUDY    54  50  87 CALM      30.44S
TRINIDAD       CLOUDY    59  54  83 CALM      30.41R
$$

COZ042>045-048>051-090-091-211400-
...NORTHEAST COLORADO...

CITY           SKY/WX    TMP DP  RH WIND       PRES   REMARKS
GREELEY ARPT   CLOUDY    57  39  51 NE8       30.38S
AKRON          CLOUDY    54  45  71 CALM      30.38R
BURLINGTON     CLOUDY    53  46  77 NE3       30.35R
WRAY           CLOUDY    50  47  90 SW3       30.35R
STERLING       CLOUDY    54  50  87 CALM      30.36R
HOLYOKE        PTCLDY    52  45  76 CALM      30.35R
FORT MORGAN    CLOUDY    55  45  69 NE5       30.39R
$$

COZ086-089-092>099-211400-
...SOUTHEAST COLORADO...

CITY           SKY/WX    TMP DP  RH WIND       PRES   REMARKS
PUEBLO         MOCLDY    60  59  96 CALM      30.35R
LA JUNTA       CLOUDY    63  47  55 E12       30.33R
LAMAR          MOCLDY    56  49  77 NW3       30.32R
SPRINGFIELD      N/A     58  51  78 N9        30.34R
$$


USA.gov is the U.S. government's official web portal to all federal, state and local government web resources and services.